Location: Madrid
(40.4000°N, 3.6830°W)
Time: 13:37:35
(UTC+02:00)

ISS - Pass Details

Date: 03 April 2020
Orbit: 417 x 419 km, 51.6° (Epoch: 31 May)

Event Time Altitude Azimuth Distance (km) Brightness Sun altitude
Rises 22:31:09 0° 304° (NW) 2,363 1.6 -20.6°
Reaches altitude 10° 22:33:15 10° 301° (WNW) 1,496 0.2 -20.9°
Enters shadow 22:36:17 59° 253° (WSW) 484 -3.4 -21.5°
